Location: Brodeslavy
(49.9527°N, 13.5567°E)
Time: 16:31:24
(UTC+00:00)

BREEZE-M DEB (TANK) - Pass Details

Date: 17 June 2025
Orbit: 298 x 14774 km, 49.5° (Epoch: 20 July)

Event Time Altitude Azimuth Distance (km) Brightness Sun altitude
Exits shadow 23:01:39 21° 142° (SE) 1,643 4.3 -16.6°
Maximum altitude 23:02:57 24° 119° (ESE) 1,815 4.7 -16.6°
Drops below altitude 10° 23:10:17 10° 71° (ENE) 4,566 7.2 -16.6°
Sets 23:17:58 0° 62° (ENE) 7,614 8.5 -16.6°
